[[{"header":{"parameterUnit":"m.s-1","parameterCategory":1,"la1":30.2991,"la2":30.254,"lo1":-89.0895,"lo2":-89.0444,"dy":0.0017,"dx":0.0017,"nx":28,"ny":28,"refTime":"2024-05-07T03:00:00:Z","depth":0,"parameterNumber":2,"parameterNumberName":"U-component_of_WINDS"},"data":[0,0,0,0,0,0,0,0,0,0,0,0,0,0,0,0,0,0,0,0,0,0,0,0,0,0,0,0,0,0,0,0,0,0,0,0,0,0,0,0,0,0,0,0,0,0,0,0,0,0,0,0,0,0,0,0,0,0,0.0797,0.0797,0,0.0832,0.0833,0.0833,0.083,0.083,0.0829,0.0829,0.0867,0.0868,0.087,0,0,0,0,0,0,0,0,0,0,0,0,0,0.0726,0.0727,0.0797,0.0797,0.0797,0.0832,0.0833,0.0833,0.083,0.083,0.0829,0.0828,0.0866,0.0868,0.087,0,0,0,0,0,0,0,0,0,0,0,0,0,0.0759,0.0728,0.0797,0.08,0.0801,0.0832,0.0833,0.0833,0.0831,0.083,0.0829,0.0828,0.0866,0.0868,0.087,0.09,0,0,0.0877,0.0878,0,0,0,0,0,0,0,0,0.0757,0.0761,0.0799,0.08,0.0801,0.0826,0.0822,0.0856,0.0831,0.0819,0.0829,0.0828,0.0854,0.0857,0.0866,0.0902,0.0904,0.0877,0.0879,0.088,0.088,0,0,0,0,0,0,0,0.0755,0.076,0.0811,0.08,0.0801,0.08,0.0804,0.0828,0.0841,0.082,0.082,0.0824,0.0854,0.0863,0.0867,0.0904,0.0877,0.0879,0.0881,0.0881,0.0966,0.0967,0,0,0,0,0,0,0.0751,0.0758,0.081,0.0812,0.0776,0.0802,0.0806,0.0819,0.0841,0.0843,0.0825,0.0824,0.086,0.0864,0.0868,0.0904,0.088,0.0882,0.0883,0.0965,0.0966,0.0967,0,0,0,0,0,0,0.075,0.0756,0.0808,0.0785,0.0791,0.0804,0.0818,0.082,0.0829,0.0844,0.0846,0.0832,0.0859,0.0865,0.0892,0.0905,0.0883,0.0885,0.0964,0.0966,0.0967,0.0977,0,0,0,0,0,0,0.0748,0.0756,0.0767,0.0785,0.0793,0.0832,0.0819,0.0821,0.0833,0.0832,0.0851,0.0854,0.0859,0.0889,0.0894,0.0908,0.0887,0.0963,0.0965,0.0967,0.0976,0.0979,0.0982,0,0,0,0,0,0.0745,0.0769,0.0768,0.0774,0.0808,0.0833,0.0837,0.0842,0.0834,0.0846,0.0855,0.0853,0.0903,0.0891,0.0898,0.0913,0.0962,0.0964,0.0966,0.0975,0.0978,0.0981,0,0,0,0,0,0,0.0754,0.0772,0.077,0.0801,0.0815,0.0832,0.0847,0.0846,0.0863,0.0862,0.0868,0.0873,0.09,0.0909,0.0896,0.0942,0.0932,0.0935,0.0936,0.0939,0.0942,0.094,0.0888,0,0,0,0,0,0.0759,0.0777,0.0792,0.0818,0.0825,0.0835,0.0846,0.0848,0.0864,0.087,0.0881,0.0896,0.0915,0.0928,0.0946,0.0977,0.0981,0.099,0.0993,0.0995,0.0998,0.1014,0.1019,0.0974,0.0974,0.0974,0,0,0.077,0.0782,0.0794,0.0819,0.0831,0.085,0.084,0.0861,0.0875,0.0873,0.0899,0.0908,0.0925,0.0954,0.0968,0.0963,0.1011,0.0998,0.0999,0.1001,0.1017,0.1021,0.1025,0.0975,0.0975,0.0975,0,0,0.08,0.0811,0.0833,0.0844,0.0861,0.0868,0.0873,0.089,0.0895,0.0921,0.092,0.0937,0.097,0.0982,0.0992,0.1025,0.1024,0.1031,0.1046,0.1061,0.1065,0.1068,0.1079,0.1084,0.1034,0.1034,0.1034,0,0.0812,0.0841,0.0845,0.0865,0.0877,0.0875,0.0897,0.0908,0.093,0.0938,0.0932,0.0972,0.0983,0.1015,0.1022,0.1031,0.1037,0.1029,0.1064,0.1067,0.107,0.1081,0.1085,0.1034,0.1034,0.1034,0.1034,0,0.0854,0.0874,0.089,0.091,0.0923,0.0944,0.0952,0.0964,0.0965,0.0972,0.0998,0.1012,0.1032,0.104,0.1042,0.1071,0.1067,0.1062,0.1052,0.1075,0.1085,0.109,0.1035,0.1035,0.1035,0.1035,0,0,0.0892,0.0913,0.0919,0.0928,0.0946,0.0961,0.0982,0.1001,0.1012,0.1027,0.1044,0.1071,0.1066,0.1078,0.1081,0.1095,0.1119,0.1088,0.1088,0.1093,0.1152,0.1156,0.1161,0.1118,0.1119,0.1119,0.1151,0,0.0924,0.096,0.0964,0.0997,0.1015,0.1013,0.1031,0.1044,0.105,0.1066,0.1073,0.1092,0.1084,0.1091,0.1105,0.1113,0.1131,0.1111,0.1134,0.1135,0.1131,0.1166,0.117,0.1199,0.1155,0.1155,0.1156,0,0.0966,0.0981,0.1016,0.103,0.1038,0.1054,0.1071,0.1087,0.1101,0.1105,0.1117,0.1118,0.1139,0.1127,0.1156,0.1142,0.1152,0.1157,0.1158,0.1161,0.1147,0.117,0.1209,0.1213,0.1162,0.1162,0.1161,0,0.099,0.1019,0.1043,0.1051,0.1068,0.1079,0.1087,0.1101,0.1112,0.1127,0.1134,0.1152,0.1162,0.1175,0.118,0.1171,0.1209,0.1197,0.1213,0.1213,0.1221,0.1221,0.1262,0.1227,0.1227,0.1227,0.1227,0,0.1025,0.1046,0.1054,0.1069,0.1092,0.1096,0.1119,0.1126,0.1138,0.1154,0.1153,0.1168,0.1174,0.119,0.1194,0.1217,0.1222,0.1225,0.1226,0.1226,0.1225,0.1233,0.1231,0.1228,0.1228,0.1228,0.1227,0,0.1056,0.1062,0.1088,0.1102,0.1105,0.1122,0.1134,0.1148,0.1154,0.1174,0.1179,0.1188,0.1207,0.1213,0.1236,0.1239,0.1266,0.1265,0.1261,0.1261,0.1276,0.1275,0.1324,0.133,0.1291,0.1291,0.1292,0,0.1078,0.1094,0.1109,0.112,0.1128,0.1145,0.1156,0.116,0.1171,0.1188,0.12,0.1218,0.1233,0.1263,0.1272,0.1289,0.1289,0.1305,0.1291,0.129,0.1289,0.1288,0.1289,0.1307,0.1308,0.1308,0.1308,0,0.1117,0.1118,0.1134,0.1151,0.1163,0.1177,0.119,0.1198,0.1204,0.1217,0.1236,0.1247,0.127,0.1288,0.1305,0.1313,0.1312,0.1312,0.1317,0.1316,0.1313,0.1315,0.1268,0.1311,0.1311,0.1311,0.1311,0.1311,0.1144,0.1157,0.117,0.1187,0.1197,0.1209,0.1223,0.123,0.1245,0.1264,0.1265,0.1285,0.1298,0.1321,0.133,0.1345,0.1341,0.1347,0.1349,0.1351,0.1352,0.131,0.1348,0.1348,0.1348,0.1348,0.1348,0,0.1182,0.119,0.1206,0.1223,0.1237,0.1233,0.1247,0.1258,0.1276,0.1288,0.1302,0.1323,0.134,0.135,0.1367,0.1378,0.1377,0.1382,0.1382,0.1383,0.1355,0.1349,0.1382,0.1382,0.1382,0.1382,0.1382,0.1382,0.1204,0.1227,0.123,0.1258,0.1265,0.1285,0.1293,0.1303,0.1313,0.1336,0.135,0.1356,0.1367,0.1384,0.14,0.1402,0.1409,0.1414,0.1416,0.1389,0.1385,0.1382,0.1377,0.1415,0.1415,0.1443,0.1443,0.1443]},{"header":{"parameterUnit":"m.s-1","parameterCategory":1,"la1":30.2991,"la2":30.254,"lo1":-89.0895,"lo2":-89.0444,"dy":0.0017,"dx":0.0017,"nx":28,"ny":28,"refTime":"2024-05-07T03:00:00:Z","depth":0,"parameterNumber":3,"parameterNumberName":"V-component_of_WINDS"},"data":[0,0,0,0,0,0,0,0,0,0,0,0,0,0,0,0,0,0,0,0,0,0,0,0,0,0,0,0,0,0,0,0,0,0,0,0,0,0,0,0,0,0,0,0,0,0,0,0,0,0,0,0,0,0,0,0,0,0,6.4239,6.4239,0,6.4225,6.4224,6.4224,6.4157,6.4155,6.4154,6.4152,6.4137,6.4138,6.4139,0,0,0,0,0,0,0,0,0,0,0,0,0,6.4209,6.421,6.4239,6.4239,6.4239,6.4225,6.4224,6.4224,6.4157,6.4155,6.4153,6.4151,6.4137,6.4138,6.414,0,0,0,0,0,0,0,0,0,0,0,0,0,6.4211,6.4211,6.4239,6.4204,6.42,6.4225,6.4224,6.4224,6.4157,6.4155,6.4153,6.4151,6.4137,6.4138,6.414,6.4197,0,0,6.4145,6.4145,0,0,0,0,0,0,0,0,6.4211,6.4213,6.4209,6.4206,6.4202,6.419,6.4208,6.4215,6.4158,6.4174,6.4152,6.4149,6.4157,6.4157,6.4159,6.4197,6.4196,6.4145,6.4146,6.4147,6.4147,0,0,0,0,0,0,0,6.4211,6.4213,6.4233,6.4209,6.4205,6.4189,6.4186,6.4209,6.4179,6.4172,6.4167,6.4166,6.4155,6.4158,6.4158,6.4196,6.4145,6.4146,6.4147,6.4148,6.4281,6.4284,0,0,0,0,0,0,6.4216,6.4213,6.4234,6.4233,6.4201,6.4191,6.4188,6.4196,6.4178,6.4173,6.4169,6.4163,6.4156,6.4156,6.4158,6.4224,6.4147,6.4148,6.4149,6.4279,6.4282,6.4285,0,0,0,0,0,0,6.4216,6.4219,6.4234,6.4222,6.4222,6.4194,6.4204,6.4197,6.42,6.4176,6.417,6.4177,6.4154,6.4155,6.4188,6.4223,6.4149,6.415,6.4276,6.428,6.4283,6.4359,0,0,0,0,0,0,6.4215,6.4219,6.424,6.4223,6.4223,6.4265,6.4206,6.4199,6.4203,6.4197,6.4182,6.4178,6.4152,6.4186,6.419,6.4224,6.4152,6.4272,6.4277,6.4282,6.4353,6.4365,6.4375,0,0,0,0,0,6.4214,6.4262,6.4242,6.4245,6.4249,6.4267,6.4268,6.4238,6.4207,6.4228,6.4212,6.4178,6.4219,6.419,6.4194,6.4229,6.427,6.4276,6.4282,6.4348,6.4362,6.4374,0,0,0,0,0,0,6.4284,6.4259,6.4236,6.4279,6.4276,6.4256,6.4282,6.4254,6.4259,6.4253,6.4215,6.4213,6.4251,6.4243,6.4212,6.4284,6.4239,6.4246,6.4288,6.4301,6.4312,6.4313,6.4153,0,0,0,0,0,6.4304,6.4321,6.4298,6.4338,6.4338,6.4311,6.4317,6.4295,6.429,6.4288,6.4274,6.4271,6.4283,6.4292,6.4301,6.4352,6.4348,6.4378,6.4388,6.4397,6.4404,6.4431,6.4444,6.4304,6.4303,6.4303,0,0,6.4346,6.4335,6.4347,6.4352,6.4347,6.4365,6.431,6.4331,6.4345,6.4291,6.4322,6.4312,6.4306,6.4348,6.4366,6.4342,6.4442,6.4405,6.4412,6.4414,6.4438,6.4452,6.4463,6.4307,6.4307,6.4306,0,0,6.4432,6.4425,6.4458,6.4454,6.4448,6.4429,6.4438,6.4422,6.4414,6.4444,6.4404,6.442,6.4441,6.4439,6.4441,6.4528,6.4497,6.4532,6.4589,6.4615,6.4626,6.4636,6.4668,6.468,6.4538,6.4538,6.4539,0,6.4485,6.4511,6.4479,6.4503,6.4507,6.446,6.4494,6.4492,6.4488,6.4492,6.4466,6.4493,6.4485,6.4527,6.4548,6.4551,6.4559,6.4533,6.4627,6.4637,6.4645,6.4675,6.4687,6.4543,6.4542,6.4542,6.4541,0,6.4577,6.4596,6.4624,6.4623,6.4629,6.4658,6.4631,6.4642,6.4619,6.4604,6.4636,6.4625,6.4632,6.4641,6.4618,6.468,6.4665,6.4634,6.4587,6.4664,6.4691,6.4702,6.4549,6.4547,6.4546,6.4545,0,0,6.4705,6.4687,6.4698,6.4697,6.4687,6.4701,6.4729,6.4736,6.4746,6.4746,6.4769,6.4788,6.476,6.4762,6.4739,6.4762,6.4833,6.4728,6.4727,6.4748,6.4901,6.4925,6.4939,6.4813,6.4815,6.4816,6.4902,0,6.4788,6.4834,6.4806,6.4857,6.4874,6.4831,6.4855,6.4851,6.4838,6.4851,6.4837,6.4852,6.4812,6.4813,6.4835,6.482,6.4863,6.4813,6.4834,6.4835,6.4837,6.4953,6.4978,6.5059,6.4912,6.4914,6.4915,0,6.4891,6.4896,6.4948,6.4936,6.4942,6.4964,6.4969,6.4982,6.4978,6.4967,6.497,6.4942,6.4968,6.4923,6.4959,6.4926,6.4933,6.4927,6.493,6.493,6.488,6.4958,6.5084,6.5097,6.4932,6.4931,6.4929,0,6.498,6.5,6.5034,6.5034,6.5021,6.5038,6.5033,6.5026,6.5033,6.5037,6.5042,6.5049,6.5054,6.5061,6.5035,6.5004,6.5076,6.5028,6.5068,6.5069,6.5085,6.5084,6.5215,6.5089,6.5088,6.5088,6.5088,0,6.5075,6.5109,6.5074,6.5095,6.5132,6.51,6.5138,6.5128,6.5123,6.5142,6.5104,6.5123,6.5088,6.5103,6.5084,6.5117,6.5119,6.5112,6.5106,6.5115,6.5116,6.5119,6.5113,6.5091,6.5091,6.509,6.509,0,6.5181,6.5159,6.5193,6.5178,6.5175,6.5203,6.519,6.5209,6.5194,6.5218,6.5222,6.5198,6.5214,6.519,6.5203,6.519,6.5237,6.5222,6.5239,6.5235,6.5276,6.5273,6.5413,6.5431,6.5293,6.5295,6.5296,0,6.5243,6.5269,6.5257,6.5267,6.5264,6.5281,6.5288,6.5258,6.5267,6.5265,6.5284,6.5297,6.5306,6.5334,6.5318,6.5328,6.5314,6.5362,6.5315,6.5324,6.5315,6.5314,6.5317,6.5372,6.5374,6.5375,6.5376,0,6.5357,6.5345,6.5357,6.5365,6.5375,6.538,6.5382,6.5393,6.5361,6.5373,6.539,6.5397,6.541,6.5424,6.543,6.5425,6.5396,6.5392,6.5401,6.5411,6.542,6.5416,6.5266,6.5388,6.5387,6.5386,6.5386,6.5385,6.5443,6.5464,6.5459,6.5474,6.5473,6.5476,6.5494,6.5482,6.5495,6.5504,6.5486,6.5507,6.5503,6.5508,6.5507,6.5523,6.5502,6.5516,6.552,6.5524,6.5531,6.5417,6.5524,6.5524,6.5523,6.5523,6.5523,0,6.5555,6.5551,6.5565,6.557,6.5581,6.5553,6.5555,6.5567,6.5586,6.5585,6.5595,6.5614,6.5627,6.5613,6.5624,6.564,6.5627,6.5644,6.5642,6.5642,6.5549,6.5539,6.5654,6.5654,6.5654,6.5654,6.5654,6.5654,6.5615,6.565,6.5638,6.5671,6.5666,6.5687,6.569,6.5693,6.5693,6.5716,6.5727,6.5718,6.5712,6.5722,6.5734,6.5729,6.5735,6.5757,6.5748,6.5661,6.5648,6.5636,6.5627,6.5759,6.5759,6.584,6.5841,6.5841]}]]